Weather History for Mosinee, WI

Change the Weather History Date:

Saturday, January 19, 2013

  Actual Average Record
Temperature  
Mean Temperature 22 °F -  
Max Temperature 39 °F 19 °F 39 °F (2013)
Min Temperature 5 °F 3 °F -18 °F (2008)
Degree Days  
Heating Degree Days 43    
Moisture  
Dew Point 20 °F    
Average Humidity 84    
Maximum Humidity 100    
Minimum Humidity 61    
Precipitation  
Precipitation 0.00 in - - ()
Sea Level Pressure  
Sea Level Pressure 29.73 in    
Wind  
Wind Speed 11 mph (West)    
Max Wind Speed 36 mph    
Max Gust Speed 53 mph    
Visibility 9 miles    
Events Snow    
Averages and records for this station are not official NWS values.
T = Trace of Precipitation, MM = Missing Value Source: NWS Daily Summary

Daily Weather History Graph

Daily Weather History Graph

Search for Another Location

Airport:

Trip Planner

Search our weather history database for the weather conditions in past years. The results will help you decide how hot, cold, wet, or windy it might be!

Date:

Astronomy

Jan. 19, 2013 Rise Set
Actual Time 7:29 AM CST 4:49 PM CST
Civil Twilight 6:57 AM CST 5:21 PM CST
Nautical Twilight 6:21 AM CST 5:57 PM CST
Astronomical Twilight 5:46 AM CST 6:32 PM CST
Moon 11:18 AM CST (1/19) 1:00 AM CST (1/19)
Length of Visible Light 10h 24m
Length of Day
9h 19m
First Quarter, 57% of the Moon is Illuminated
Jan 19
First Quarter
Jan 26
Full
Feb 3
Last Quarter
Feb 10
New
Feb 17
First Quarter

Hourly Weather History & Observations

Time (CST) Temp. Windchill Dew Point Humidity Pressure Visibility Wind Dir Wind Speed Gust Speed Precip Events Conditions
12:15 AM 28.4 °F 21.2 °F 28.4 °F 100% 29.75 in 10.0 mi WSW 6.9 mph - N/A   Clear
12:35 AM 28.4 °F 20.4 °F 28.4 °F 100% 29.75 in 10.0 mi WSW 8.1 mph - N/A   Clear
12:55 AM 28.4 °F 19.7 °F 28.4 °F 100% 29.74 in 10.0 mi WSW 9.2 mph - N/A   Clear
1:15 AM 30.2 °F 21.9 °F 28.4 °F 93% 29.75 in 10.0 mi West 9.2 mph - N/A   Clear
1:35 AM 30.2 °F 22.6 °F 28.4 °F 93% 29.76 in 10.0 mi West 8.1 mph - N/A   Clear
1:55 AM 30.2 °F 21.9 °F 28.4 °F 93% 29.76 in 10.0 mi WNW 9.2 mph - N/A   Scattered Clouds
2:15 AM 30.2 °F 22.6 °F 28.4 °F 93% 29.77 in 10.0 mi West 8.1 mph - N/A   Scattered Clouds
2:35 AM 30.2 °F 24.3 °F 28.4 °F 93% 29.77 in 10.0 mi West 5.8 mph - N/A   Clear
2:55 AM 30.2 °F 25.4 °F 28.4 °F 93% 29.77 in 10.0 mi West 4.6 mph - N/A   Scattered Clouds
3:15 AM 28.4 °F - 26.6 °F 93% 29.76 in 10.0 mi Calm Calm - N/A   Scattered Clouds
3:35 AM 28.4 °F 23.3 °F 26.6 °F 93% 29.77 in 10.0 mi SW 4.6 mph - N/A   Clear
3:55 AM 28.4 °F 24.6 °F 26.6 °F 93% 29.77 in 10.0 mi SSW 3.5 mph - N/A   Mostly Cloudy
4:15 AM 28.4 °F - 26.6 °F 93% 29.76 in 10.0 mi Calm Calm - N/A   Mostly Cloudy
4:35 AM 28.4 °F 23.3 °F 28.4 °F 100% 29.75 in 10.0 mi South 4.6 mph - N/A   Overcast
5:52 AM 28.4 °F - 28.4 °F 100% 29.73 in 10.0 mi Calm Calm - N/A   Overcast
6:50 AM 28.4 °F 21.2 °F 28.4 °F 100% 29.72 in 10.0 mi SSE 6.9 mph - N/A   Overcast
7:52 AM 28.4 °F 21.2 °F 28.4 °F 100% 29.70 in 10.0 mi South 6.9 mph - N/A   Overcast
9:55 AM 33.8 °F 30.8 °F 32.0 °F 93% 29.67 in 10.0 mi South 3.5 mph - N/A   Clear
10:45 AM 35.6 °F 28.6 °F 32.0 °F 87% 29.65 in 10.0 mi SSW 9.2 mph - N/A   Clear
11:45 AM 37.4 °F 30.3 °F 32.0 °F 81% 29.61 in 10.0 mi SW 10.4 mph 16.1 mph N/A   Clear
12:45 PM 37.4 °F 29.3 °F 32.0 °F 81% 29.59 in 10.0 mi WSW 12.7 mph 18.4 mph N/A   Mostly Cloudy
1:45 PM 39.2 °F 30.8 °F 32.0 °F 75% 29.57 in 10.0 mi West 15.0 mph 19.6 mph N/A   Mostly Cloudy
2:45 PM 37.4 °F 27.8 °F 32.0 °F 81% 29.57 in 10.0 mi West 17.3 mph 26.5 mph N/A   Mostly Cloudy
3:45 PM 35.6 °F 23.2 °F 30.2 °F 81% 29.59 in 10.0 mi West 26.5 mph 41.4 mph N/A   Overcast
4:45 PM 33.8 °F 24.3 °F 28.4 °F 81% 29.59 in 10.0 mi West 13.8 mph 21.9 mph N/A   Mostly Cloudy
5:45 PM 30.2 °F 16.5 °F 28.4 °F 93% 29.57 in 5.0 mi West 24.2 mph 34.5 mph N/A Snow Light Snow
6:15 PM 30.2 °F 18.1 °F 28.4 °F 93% 29.56 in 1.5 mi West 18.4 mph 33.4 mph N/A Snow Light Snow
6:50 PM 24.8 °F 6.6 °F 14.0 °F 64% 29.62 in 3.0 mi West 35.7 mph 52.9 mph N/A Snow Light Snow
7:50 PM 17.6 °F -1.6 °F 10.4 °F 73% 29.70 in 3.0 mi WNW 28.8 mph 40.3 mph N/A Snow Light Snow
8:45 PM 12.2 °F -8.2 °F 5.0 °F 73% 29.76 in 5.0 mi WNW 26.5 mph 40.3 mph N/A Snow Light Snow
9:15 PM 12.2 °F -8.2 °F 1.4 °F 62% 29.79 in 10.0 mi WNW 26.5 mph 42.6 mph N/A   Overcast
9:35 PM 10.4 °F -11.0 °F 1.4 °F 67% 29.80 in 10.0 mi WNW 27.6 mph 41.4 mph N/A   Overcast
9:45 PM 8.6 °F -12.7 °F 1.4 °F 73% 29.82 in 7.0 mi WNW 25.3 mph 33.4 mph N/A   Overcast
9:55 PM 10.4 °F -11.4 °F 1.4 °F 67% 29.82 in 10.0 mi WNW 28.8 mph 36.8 mph N/A   Overcast
10:15 PM 10.4 °F -8.6 °F -0.4 °F 62% 29.84 in 10.0 mi WNW 20.7 mph 40.3 mph N/A   Overcast
10:35 PM 8.6 °F -13.8 °F -0.4 °F 67% 29.86 in 10.0 mi WNW 28.8 mph 38.0 mph N/A   Overcast
10:55 PM 6.8 °F -14.3 °F -4.0 °F 61% 29.87 in 10.0 mi WNW 23.0 mph 32.2 mph N/A   Mostly Cloudy
11:15 PM 6.8 °F -15.1 °F -2.2 °F 67% 29.89 in 10.0 mi WNW 25.3 mph 38.0 mph N/A   Mostly Cloudy
11:35 PM 5.0 °F -17.1 °F -4.0 °F 66% 29.90 in 10.0 mi WNW 24.2 mph 31.1 mph N/A   Scattered Clouds
11:55 PM 5.0 °F -15.7 °F -4.0 °F 66% 29.92 in 10.0 mi WNW 20.7 mph 32.2 mph N/A   Mostly Cloudy